period_start,C,m1,H,J0,J1,J2,J3,J4,J5,JA,JB,JC,JD,JJ,JK,JN,#
2018-09-10 00:01:31,-0.00,0.51,0.00,19.12,22.81,25.92,14.10,47.65,1009.78,2045.00,3071.66,2785.00,3203.07,600.14,600.01,35.38,0000 0000 0000 0000 000000
2018-09-10 00:06:33,0.01,0.51,0.00,19.11,22.80,25.95,14.06,47.75,1009.76,2045.00,3071.33,2784.99,3203.05,600.13,600.04,35.43,0000 0000 0000 0000 000000
2018-09-10 00:11:34,-0.00,0.52,0.00,19.10,22.79,25.89,14.12,47.74,1009.75,2045.00,3071.13,2784.99,3203.06,600.25,600.02,35.48,0000 0000 0000 0000 000000
2018-09-10 00:16:35,-0.00,0.52,0.00,19.11,22.79,25.92,14.09,47.72,1009.72,2045.01,3071.24,2784.99,3203.08,599.94,599.79,35.53,0000 0000 0000 0000 000000
2018-09-10 00:21:36,0.00,0.52,0.00,19.11,22.79,25.86,14.16,47.72,1009.72,2045.01,3071.14,2784.99,3203.06,600.09,599.94,35.58,0000 0000 0000 0000 000000
2018-09-10 00:26:38,0.00,0.52,0.00,19.10,22.79,25.86,13.98,47.60,1009.64,2045.03,3071.26,2784.99,3203.08,599.81,599.70,35.63,0000 0000 0000 0000 000000
2018-09-10 00:31:39,-0.00,0.52,0.00,19.10,22.78,25.90,14.14,47.63,1009.74,2045.06,3071.42,2784.99,3203.23,599.95,599.77,35.68,0000 0000 0000 0000 000000
2018-09-10 00:36:41,-0.00,0.52,0.00,19.09,22.77,25.89,14.09,47.65,1009.76,2045.04,3071.43,2784.99,3203.23,600.17,600.15,35.73,0000 0000 0000 0000 000000
2018-09-10 00:41:42,0.00,0.52,0.00,19.09,22.77,25.87,14.09,47.78,1009.75,2045.04,3071.24,2784.99,3203.11,600.00,599.90,35.78,0000 0000 0000 0000 000000
2018-09-10 00:46:43,-0.00,0.52,0.00,19.09,22.77,25.90,14.02,47.65,1009.75,2045.06,3071.29,2785.00,3203.09,599.84,599.77,35.84,0000 0000 0000 0000 000000
2018-09-10 00:51:45,0.00,0.52,0.00,19.09,22.77,25.87,14.08,47.66,1009.77,2045.04,3071.22,2785.00,3203.05,599.95,599.89,35.89,0000 0000 0000 0000 000000
2018-09-10 00:56:46,-0.00,0.52,0.00,19.09,22.77,25.85,14.06,47.67,1009.77,2045.08,3071.62,2785.01,3203.21,599.86,599.78,35.94,0000 0000 0000 0000 000000
2018-09-10 01:01:47,0.00,0.52,0.00,19.09,22.77,25.85,14.05,47.60,1009.77,2045.03,3071.33,2785.00,3203.12,599.95,599.89,35.99,0000 0000 0000 0000 000000
2018-09-10 01:06:49,-0.00,0.52,0.00,19.09,22.76,25.86,14.13,47.63,1009.77,2045.09,3071.48,2785.00,3203.27,600.22,600.09,36.04,0000 0000 0000 0000 000000
2018-09-10 01:11:50,0.00,0.52,0.00,19.08,22.75,25.86,14.11,47.64,1009.76,2045.10,3071.57,2785.01,3203.26,600.16,600.11,36.09,0000 0000 0000 0000 000000
2018-09-10 01:16:51,0.01,0.52,0.00,19.07,22.75,25.85,14.07,47.63,1009.78,2045.20,3071.34,2785.01,3203.27,600.12,600.20,36.14,0000 0000 0000 0000 000000
2018-09-10 01:21:52,-0.01,0.52,0.00,19.07,22.74,25.85,14.10,47.69,1009.78,2045.13,3071.15,2785.00,3203.10,600.36,600.15,36.19,0000 0000 0000 0000 000000
2018-09-10 01:26:54,0.01,0.52,0.00,19.07,22.74,25.83,13.99,47.64,1009.79,2045.26,3071.11,2785.00,3203.07,599.72,599.73,36.24,0000 0000 0000 0000 000000
2018-09-10 01:31:55,-0.01,0.52,0.00,19.07,22.74,25.83,14.08,47.67,1009.79,2045.29,3071.02,2785.00,3203.04,599.84,599.74,36.29,0000 0000 0000 0000 000000
2018-09-10 01:36:56,0.03,0.52,0.00,19.07,22.74,25.84,14.08,47.52,1009.78,2045.40,3071.01,2785.00,3203.02,600.19,600.11,36.34,0000 0000 0000 0000 000000
2018-09-10 01:41:58,0.01,0.52,0.00,19.07,22.74,25.84,14.04,47.51,1009.78,2045.63,3071.00,2785.00,3203.01,600.08,599.92,36.39,0000 0000 0000 0000 000000
2018-09-10 01:46:59,-0.00,0.52,0.00,19.07,22.74,25.82,13.97,47.59,1009.78,2045.64,3071.00,2785.00,3203.01,599.42,599.66,36.44,0000 0000 0000 0000 000000
2018-09-10 01:52:00,0.01,0.52,0.00,19.07,22.74,25.81,14.09,47.53,1009.78,2045.68,3071.00,2785.00,3203.00,600.53,600.51,36.49,0000 0000 0000 0000 000000
2018-09-10 01:57:01,-0.01,0.52,0.00,19.07,22.73,25.78,14.01,47.67,1009.77,2045.50,3071.00,2785.00,3203.00,599.47,599.55,36.54,0000 0000 0000 0000 000000
2018-09-10 02:02:03,-0.02,0.52,0.00,19.07,22.72,25.79,14.13,47.68,1009.77,2045.29,3071.00,2784.98,3203.00,600.08,599.98,36.59,0000 0000 0000 0000 000000
2018-09-10 02:07:04,0.01,0.52,0.00,19.07,22.72,25.82,14.02,47.73,1009.77,2045.30,3071.00,2784.98,3203.00,599.91,599.90,36.64,0000 0000 0000 0000 000000
2018-09-10 02:12:06,0.02,0.52,0.00,19.07,22.72,25.82,14.10,47.63,1009.78,2045.55,3070.99,2784.98,3203.00,600.12,600.19,36.69,0000 0000 0000 0000 000000
2018-09-10 02:17:07,-0.01,0.52,0.00,19.07,22.72,25.80,14.07,47.66,1009.74,2045.53,3070.97,2784.98,3202.99,600.29,600.24,36.74,0000 0000 0000 0000 000000
2018-09-10 02:22:09,0.02,0.52,0.00,19.07,22.72,25.81,14.03,47.54,1009.75,2045.66,3070.97,2784.98,3202.99,599.87,599.82,36.80,0000 0000 0000 0000 000000
2018-09-10 02:27:10,0.03,0.52,0.00,19.08,22.72,25.81,14.05,47.56,1009.77,2045.78,3070.51,2784.85,3202.96,600.14,600.15,36.85,0000 0000 0000 0000 000000
2018-09-10 02:32:11,0.01,0.52,0.00,19.09,22.72,25.80,14.05,47.69,1009.73,2045.73,3070.01,2784.34,3202.70,599.84,599.66,36.90,0000 0000 0000 0000 000000
2018-09-10 02:37:12,0.11,0.52,0.00,19.07,22.72,25.79,14.07,47.54,1009.68,2045.77,3068.78,2783.39,3201.53,600.34,600.30,36.95,0000 0000 0000 0000 000000
2018-09-10 02:42:14,0.95,0.56,0.00,19.07,22.72,25.81,14.08,47.58,1009.66,2045.60,3053.70,2772.57,3189.56,599.95,600.03,37.00,0000 0000 0000 0000 000000
2018-09-10 02:47:15,0.13,0.58,0.00,19.07,22.72,25.77,13.99,47.58,1009.68,2045.75,3047.42,2768.05,3184.37,599.91,599.84,37.05,0000 0000 0000 0000 000000
2018-09-10 02:52:16,-0.01,0.58,0.00,19.08,22.72,25.78,14.00,47.70,1009.60,2045.33,3046.85,2767.48,3183.99,599.80,599.67,37.10,0000 0000 0000 0000 000000
2018-09-10 02:57:18,0.01,0.58,0.00,19.08,22.72,25.80,14.09,47.61,1009.65,2045.24,3046.23,2767.09,3183.97,600.23,600.07,37.15,0000 0000 0000 0000 000000
2018-09-10 03:02:19,0.00,0.58,0.00,19.07,22.72,25.81,14.08,47.67,1009.47,2045.26,3046.02,2767.03,3183.71,600.27,600.03,37.20,0000 0000 0000 0000 000000
2018-09-10 03:07:20,0.01,0.58,0.00,19.07,22.72,25.75,14.07,47.50,1009.66,2045.21,3045.99,2767.00,3183.16,599.98,599.92,37.25,0000 0000 0000 0000 000000
2018-09-10 03:12:21,0.01,0.58,0.00,19.08,22.72,25.82,13.99,47.41,1009.74,2045.26,3045.72,2767.00,3183.01,600.00,599.96,37.30,0000 0000 0000 0000 000000
2018-09-10 03:17:23,0.00,0.58,0.00,19.08,22.72,25.79,14.10,47.60,1009.49,2045.23,3045.27,2766.98,3183.00,600.47,600.24,37.35,0000 0000 0000 0000 000000
2018-09-10 03:22:24,0.03,0.58,0.00,19.09,22.72,25.76,14.12,47.58,1009.54,2045.52,3045.02,2766.78,3182.99,600.31,600.17,37.40,0000 0000 0000 0000 000000
2018-09-10 03:27:26,0.01,0.59,0.00,19.09,22.72,25.77,14.06,47.67,1009.50,2045.63,3044.99,2766.68,3182.97,599.99,599.73,37.45,0000 0000 0000 0000 000000
2018-09-10 03:32:27,-0.01,0.59,0.00,19.09,22.72,25.79,14.02,47.54,1009.43,2045.58,3044.99,2766.49,3182.94,600.09,599.88,37.50,0000 0000 0000 0000 000000
2018-09-10 03:37:28,-0.00,0.59,0.00,19.11,22.72,25.80,14.08,47.61,1009.41,2045.57,3044.98,2766.47,3182.95,599.96,599.69,37.55,0000 0000 0000 0000 000000
2018-09-10 03:42:30,-0.00,0.58,0.00,19.12,22.72,25.77,14.11,47.66,1009.34,2045.50,3044.98,2766.50,3182.83,600.11,599.75,37.60,0000 0000 0000 0000 000000
2018-09-10 03:47:31,0.03,0.59,0.00,19.12,22.72,25.74,14.03,47.66,1009.30,2045.34,3044.66,2766.09,3182.14,599.82,599.44,37.65,0000 0000 0000 0000 000000
2018-09-10 03:52:33,0.01,0.59,0.00,19.12,22.72,25.81,14.06,47.58,1009.29,2045.35,3044.10,2766.01,3182.01,599.80,599.51,37.71,0000 0000 0000 0000 000000
2018-09-10 03:57:34,0.01,0.59,0.00,19.12,22.72,25.75,14.04,47.63,1009.31,2045.51,3044.00,2766.00,3182.00,600.12,599.37,37.76,0000 0000 0000 0000 000000
2018-09-10 04:02:35,0.02,0.59,0.00,19.12,22.72,25.76,14.02,47.67,1009.30,2045.51,3043.99,2765.99,3181.99,599.38,598.98,37.81,0000 0000 0000 0000 000000
2018-09-10 04:07:36,-0.01,0.59,0.00,19.12,22.73,25.80,13.96,47.48,1009.33,2045.48,3043.96,2765.98,3181.98,599.87,599.50,37.86,0000 0000 0000 0000 000000
2018-09-10 04:12:37,-0.01,0.59,0.00,19.13,22.74,25.72,14.09,47.66,1009.35,2045.36,3043.70,2765.97,3181.94,600.31,599.93,37.91,0000 0000 0000 0000 000000
2018-09-10 04:17:38,0.02,0.59,0.00,19.14,22.74,25.75,13.98,47.66,1009.48,2045.46,3043.12,2765.93,3181.75,599.75,599.40,37.96,0000 0000 0000 0000 000000
2018-09-10 04:22:39,0.01,0.59,0.00,19.14,22.74,25.78,14.10,47.63,1009.56,2045.46,3043.05,2765.91,3181.52,600.20,599.91,38.01,0000 0000 0000 0000 000000
2018-09-10 04:27:41,0.02,0.59,0.00,19.14,22.74,25.80,14.06,47.72,1009.69,2045.59,3043.00,2765.63,3181.23,600.43,600.21,38.06,0000 0000 0000 0000 000000
2018-09-10 04:32:42,0.02,0.59,0.00,19.16,22.74,25.76,13.98,47.59,1009.69,2045.80,3043.00,2765.66,3181.18,599.84,599.60,38.11,0000 0000 0000 0000 000000
2018-09-10 04:37:43,0.00,0.59,0.00,19.18,22.75,25.76,13.99,47.63,1009.67,2045.87,3043.00,2765.63,3181.08,599.88,599.73,38.16,0000 0000 0000 0000 000000
2018-09-10 04:42:45,-0.01,0.59,0.00,19.19,22.76,25.75,14.09,47.66,1009.67,2045.74,3043.00,2765.50,3181.03,599.92,599.60,38.21,0000 0000 0000 0000 000000
2018-09-10 04:47:46,0.00,0.59,0.00,19.17,22.77,25.78,14.07,47.58,1009.76,2045.63,3042.95,2765.07,3181.00,599.91,599.75,38.26,0000 0000 0000 0000 000000
2018-09-10 04:52:47,0.03,0.59,0.00,19.19,22.77,25.79,14.02,47.49,1009.77,2045.70,3042.33,2765.00,3180.91,599.88,599.57,38.31,0000 0000 0000 0000 000000
2018-09-10 04:57:48,0.02,0.59,0.00,19.19,22.77,25.78,14.04,47.60,1009.76,2045.80,3041.98,2764.97,3180.19,599.98,599.81,38.36,0000 0000 0000 0000 000000
2018-09-10 05:02:49,-0.01,0.59,0.00,19.19,22.77,25.80,14.04,47.66,1009.74,2045.65,3041.93,2764.92,3180.04,600.04,599.77,38.41,0000 0000 0000 0000 000000
2018-09-10 05:07:50,-0.01,0.59,0.00,19.20,22.77,25.80,14.04,47.73,1009.70,2045.47,3041.79,2764.84,3180.01,599.89,599.62,38.46,0000 0000 0000 0000 000000
2018-09-10 05:12:52,0.01,0.59,0.00,19.21,22.79,25.80,14.05,47.73,1009.76,2045.32,3041.43,2764.79,3180.00,599.94,599.66,38.51,0000 0000 0000 0000 000000
2018-09-10 05:17:53,-0.00,0.59,0.00,19.22,22.79,25.79,14.10,47.67,1009.78,2045.38,3041.21,2764.67,3180.00,600.30,599.92,38.56,0000 0000 0000 0000 000000
2018-09-10 05:22:54,-0.00,0.59,0.00,19.22,22.79,25.81,14.02,47.61,1009.78,2045.19,3041.05,2764.36,3180.00,600.04,599.74,38.62,0000 0000 0000 0000 000000
2018-09-10 05:27:55,0.00,0.59,0.00,19.23,22.79,25.75,13.95,47.69,1009.78,2045.18,3041.05,2764.26,3179.98,600.14,599.80,38.67,0000 0000 0000 0000 000000
2018-09-10 05:32:57,0.01,0.59,0.00,19.23,22.80,25.82,13.99,47.50,1009.78,2045.18,3041.01,2764.08,3179.94,599.76,599.45,38.72,0000 0000 0000 0000 000000
2018-09-10 05:37:58,-0.00,0.59,0.00,19.24,22.80,25.80,14.06,47.63,1009.78,2045.06,3041.00,2764.06,3179.71,600.05,599.70,38.77,0000 0000 0000 0000 000000
2018-09-10 05:42:59,0.01,0.59,0.00,19.24,22.82,25.81,14.06,47.72,1009.78,2045.07,3041.00,2764.04,3179.30,599.90,599.49,38.82,0000 0000 0000 0000 000000
2018-09-10 05:48:01,0.00,0.59,0.00,19.24,22.82,25.80,14.06,47.82,1009.79,2045.03,3040.98,2764.01,3179.09,599.95,599.60,38.87,0000 0000 0000 0000 000000
2018-09-10 05:53:02,0.00,0.59,0.00,19.26,22.82,25.83,14.08,47.80,1009.78,2045.04,3040.96,2764.00,3179.07,600.00,599.62,38.92,0000 0000 0000 0000 000000
2018-09-10 05:58:03,0.00,0.59,0.00,19.26,22.82,25.83,14.07,47.85,1009.78,2045.01,3040.97,2764.00,3179.02,600.14,599.73,38.97,0000 0000 0000 0000 000000
2018-09-10 06:03:04,0.00,0.59,0.00,19.27,22.82,25.86,14.09,47.78,1009.78,2045.00,3040.70,2764.00,3179.00,599.97,599.43,39.02,0000 0000 0000 0000 000000
2018-09-10 06:08:05,0.01,0.59,0.00,19.28,22.84,25.83,14.06,47.88,1009.79,2045.00,3040.33,2764.00,3179.00,599.94,599.56,39.07,0000 0000 0000 0000 000000
2018-09-10 06:13:06,0.00,0.59,0.00,19.27,22.84,25.86,13.98,47.92,1009.81,2045.00,3040.02,2763.99,3178.98,600.07,599.68,39.12,0000 0000 0000 0000 000000
2018-09-10 06:18:07,0.00,0.59,0.00,19.27,22.84,25.88,14.05,47.91,1009.85,2045.00,3040.03,2763.99,3178.98,599.94,599.65,39.17,0000 0000 0000 0000 000000
2018-09-10 06:23:09,0.00,0.59,0.00,19.27,22.84,25.89,14.08,47.78,1009.97,2045.00,3040.00,2763.98,3178.89,599.94,599.56,39.22,0000 0000 0000 0000 000000
2018-09-10 06:28:10,-0.00,0.59,0.00,19.27,22.85,25.89,14.01,47.87,1010.02,2045.00,3040.00,2763.98,3178.76,599.99,599.66,39.27,0000 0000 0000 0000 000000
2018-09-10 06:33:11,0.01,0.59,0.00,19.27,22.85,25.86,13.98,47.90,1010.04,2045.00,3040.00,2763.98,3178.26,599.91,599.64,39.32,0000 0000 0000 0000 000000
2018-09-10 06:38:12,0.00,0.59,0.00,19.29,22.87,25.89,14.07,47.99,1010.15,2045.00,3040.00,2763.97,3178.07,599.97,599.75,39.37,0000 0000 0000 0000 000000
2018-09-10 06:43:14,0.00,0.59,0.00,19.29,22.87,25.85,14.04,47.75,1010.27,2045.00,3039.99,2763.98,3178.04,600.05,599.87,39.42,0000 0000 0000 0000 000000
2018-09-10 06:48:15,0.00,0.59,0.00,19.29,22.87,25.92,14.00,47.68,1010.25,2045.00,3039.96,2763.98,3178.01,599.82,599.63,39.47,0000 0000 0000 0000 000000
2018-09-10 06:53:16,0.01,0.60,0.00,19.28,22.87,25.92,14.04,47.81,1010.26,2045.00,3039.84,2763.78,3178.00,599.81,599.64,39.52,0000 0000 0000 0000 000000
2018-09-10 06:58:17,0.01,0.60,0.00,19.28,22.87,25.92,14.07,47.83,1010.26,2044.99,3039.36,2763.51,3178.00,599.89,599.75,39.57,0000 0000 0000 0000 000000
2018-09-10 07:03:18,0.01,0.60,0.00,19.29,22.87,25.92,14.13,47.95,1010.26,2044.99,3039.06,2763.23,3177.93,600.03,599.90,39.63,0000 0000 0000 0000 000000
2018-09-10 07:08:20,0.03,0.60,0.00,19.29,22.88,25.90,14.00,47.85,1010.27,2044.99,3038.38,2763.01,3177.14,599.69,599.51,39.68,0000 0000 0000 0000 000000
2018-09-10 07:13:21,0.01,0.60,0.00,19.29,22.89,25.89,14.10,47.97,1010.27,2044.99,3037.72,2762.92,3176.97,600.14,599.78,39.73,0000 0000 0000 0000 000000
2018-09-10 07:18:22,0.04,0.60,0.00,19.29,22.89,25.86,14.02,48.04,1010.27,2044.97,3037.01,2762.18,3176.22,599.92,599.72,39.78,0000 0000 0000 0000 000000
2018-09-10 07:23:24,0.02,0.60,0.00,19.29,22.89,25.91,14.07,47.84,1010.29,2044.97,3036.29,2762.01,3176.01,600.26,600.01,39.83,0000 0000 0000 0000 000000
2018-09-10 07:28:24,0.00,0.60,0.00,19.29,22.89,25.94,14.01,47.86,1010.28,2044.98,3036.00,2762.00,3175.99,599.82,599.64,39.88,0000 0000 0000 0000 000000
2018-09-10 07:33:26,0.00,0.60,0.00,19.29,22.89,25.94,14.04,47.87,1010.28,2044.97,3035.93,2761.99,3175.95,599.82,599.78,39.93,0000 0000 0000 0000 000000
2018-09-10 07:38:27,0.02,0.60,0.00,19.29,22.89,25.93,14.12,47.91,1010.31,2044.98,3035.54,2761.98,3175.50,600.35,600.18,39.98,0000 0000 0000 0000 000000
2018-09-10 07:43:28,0.01,0.60,0.00,19.30,22.90,25.96,14.12,47.92,1010.38,2044.96,3035.15,2761.98,3175.11,600.18,600.08,40.03,0000 0000 0000 0000 000000
2018-09-10 07:48:29,0.00,0.60,0.00,19.31,22.90,25.91,14.13,47.90,1010.39,2044.96,3035.02,2761.93,3175.03,599.99,599.91,40.08,0000 0000 0000 0000 000000
2018-09-10 07:53:31,0.00,0.61,0.00,19.31,22.91,25.94,14.04,47.98,1010.40,2044.97,3035.00,2761.74,3175.00,600.10,600.02,40.13,0000 0000 0000 0000 000000
2018-09-10 07:58:32,0.00,0.61,0.00,19.32,22.92,25.95,14.07,47.89,1010.49,2044.92,3034.99,2761.49,3175.00,600.24,600.22,40.18,0000 0000 0000 0000 000000
2018-09-10 08:03:33,0.01,0.61,0.00,19.32,22.92,25.93,14.08,47.93,1010.50,2044.96,3034.96,2761.21,3174.98,600.13,600.11,40.23,0000 0000 0000 0000 000000
2018-09-10 08:08:34,0.01,0.61,0.00,19.32,22.92,25.93,14.10,47.84,1010.70,2044.93,3034.62,2761.07,3174.93,600.19,600.17,40.28,0000 0000 0000 0000 000000
2018-09-10 08:13:36,0.01,0.61,0.00,19.32,22.92,25.97,14.13,47.80,1010.76,2044.96,3034.11,2761.03,3174.64,600.40,600.39,40.33,0000 0000 0000 0000 000000
2018-09-10 08:18:37,0.00,0.61,0.00,19.32,22.92,25.94,14.12,47.88,1010.76,2044.91,3034.04,2761.00,3174.19,600.02,600.03,40.38,0000 0000 0000 0000 000000
2018-09-10 08:23:38,-0.02,0.61,0.00,19.32,22.92,25.95,14.10,47.69,1010.76,2044.72,3034.00,2761.00,3174.02,600.10,600.16,40.44,0000 0000 0000 0000 000000
2018-09-10 08:28:39,-0.01,0.61,0.00,19.32,22.92,25.99,14.14,47.84,1010.76,2044.57,3034.00,2761.00,3174.00,600.21,600.27,40.49,0000 0000 0000 0000 000000
2018-09-10 08:33:41,-0.02,0.61,0.00,19.33,22.93,26.00,13.97,47.72,1010.78,2044.38,3033.99,2760.99,3174.00,599.66,599.74,40.54,0000 0000 0000 0000 000000
2018-09-10 08:38:42,-0.02,0.60,0.00,19.32,22.94,26.00,14.07,47.91,1010.77,2044.21,3033.98,2760.99,3173.99,599.95,600.12,40.59,0000 0000 0000 0000 000000
2018-09-10 08:43:43,0.01,0.60,0.00,19.32,22.94,25.95,14.06,47.88,1010.77,2044.19,3033.92,2760.98,3173.97,600.11,600.06,40.64,0000 0000 0000 0000 000000
2018-09-10 08:48:45,0.00,0.60,0.00,19.32,22.94,25.99,13.98,47.82,1010.77,2044.12,3033.55,2760.97,3173.81,599.76,599.89,40.69,0000 0000 0000 0000 000000
2018-09-10 08:53:46,0.01,0.61,0.00,19.31,22.94,26.00,14.10,47.92,1010.78,2044.12,3033.17,2760.94,3173.46,600.30,600.45,40.74,0000 0000 0000 0000 000000
2018-09-10 08:58:47,0.01,0.61,0.00,19.31,22.94,26.01,14.02,47.76,1010.80,2044.12,3033.04,2760.93,3173.17,600.13,600.26,40.79,0000 0000 0000 0000 000000
2018-09-10 09:03:48,0.00,0.61,0.00,19.31,22.94,26.01,14.06,47.77,1010.86,2044.08,3033.00,2760.75,3173.01,599.96,600.08,40.84,0000 0000 0000 0000 000000
2018-09-10 09:08:50,0.00,0.61,0.00,19.31,22.94,26.02,14.04,47.65,1011.07,2044.09,3033.00,2760.55,3173.00,599.75,600.00,40.89,0000 0000 0000 0000 000000
2018-09-10 09:13:51,0.00,0.61,0.00,19.30,22.94,26.02,14.09,47.79,1011.06,2044.17,3033.00,2760.43,3173.00,600.33,600.58,40.94,0000 0000 0000 0000 000000
2018-09-10 09:18:52,0.01,0.61,0.00,19.31,22.94,26.01,14.03,47.80,1010.99,2044.12,3032.98,2760.19,3173.00,600.17,600.31,40.99,0000 0000 0000 0000 000000
2018-09-10 09:23:53,0.00,0.61,0.00,19.30,22.94,26.04,14.08,47.77,1011.13,2044.10,3032.95,2760.07,3172.99,599.99,600.20,41.04,0000 0000 0000 0000 000000
2018-09-10 09:28:54,0.00,0.61,0.00,19.30,22.94,26.00,14.11,47.77,1011.22,2044.07,3032.62,2760.03,3172.96,600.26,600.63,41.09,0000 0000 0000 0000 000000
2018-09-10 09:33:56,0.00,0.61,0.00,19.30,22.94,26.00,14.10,47.76,1011.20,2044.07,3032.42,2760.02,3172.92,600.21,600.52,41.14,0000 0000 0000 0000 000000
2018-09-10 09:38:57,0.01,0.61,0.00,19.29,22.94,26.03,14.07,47.78,1011.24,2044.11,3032.10,2760.02,3172.79,600.02,600.46,41.19,0000 0000 0000 0000 000000
2018-09-10 09:43:58,0.00,0.61,0.00,19.29,22.94,25.98,14.11,47.73,1011.24,2044.10,3032.05,2760.02,3172.37,600.01,600.29,41.24,0000 0000 0000 0000 000000
2018-09-10 09:49:00,0.01,0.61,0.00,19.30,22.94,25.98,14.06,47.64,1011.25,2044.10,3032.00,2760.01,3172.13,600.07,600.45,41.29,0000 0000 0000 0000 000000
2018-09-10 09:54:01,-0.00,0.61,0.00,19.29,22.94,26.01,14.00,47.73,1011.26,2044.07,3032.00,2760.01,3172.06,599.66,600.10,41.34,0000 0000 0000 0000 000000
2018-09-10 09:59:02,-0.00,0.61,0.00,19.29,22.94,26.02,14.13,47.80,1011.29,2044.10,3032.00,2760.00,3172.04,600.26,600.45,41.40,0000 0000 0000 0000 000000
2018-09-10 10:04:04,-0.00,0.61,0.00,19.29,22.94,26.00,14.06,47.74,1011.50,2044.08,3032.00,2760.00,3172.02,599.90,600.48,41.45,0000 0000 0000 0000 000000
2018-09-10 10:09:05,0.00,0.61,0.00,19.29,22.94,26.00,14.01,47.67,1011.46,2044.12,3032.00,2760.00,3172.01,599.89,600.50,41.50,0000 0000 0000 0000 000000
2018-09-10 10:14:06,0.00,0.61,0.00,19.29,22.94,25.99,14.05,47.73,1011.41,2044.14,3032.00,2760.00,3172.00,600.01,600.60,41.55,0000 0000 0000 0000 000000
2018-09-10 10:19:07,0.01,0.61,0.00,19.29,22.94,25.99,14.03,47.82,1011.55,2044.15,3031.99,2760.00,3172.00,600.03,600.65,41.60,0000 0000 0000 0000 000000
2018-09-10 10:24:09,-0.00,0.61,0.00,19.28,22.94,25.98,14.04,47.72,1011.60,2044.22,3031.99,2760.00,3172.00,599.75,600.35,41.65,0000 0000 0000 0000 000000
2018-09-10 10:29:10,-0.01,0.61,0.00,19.29,22.93,26.02,14.19,47.80,1011.65,2044.15,3031.98,2760.00,3172.00,600.33,600.99,41.70,0000 0000 0000 0000 000000
2018-09-10 10:34:12,0.01,0.61,0.00,19.27,22.93,26.03,14.15,47.79,1011.65,2044.23,3031.98,2760.00,3172.00,600.05,600.54,41.75,0000 0000 0000 0000 000000
2018-09-10 10:39:13,0.00,0.61,0.00,19.27,22.92,26.00,14.02,47.74,1011.68,2044.35,3031.98,2760.00,3172.00,599.96,600.77,41.80,0000 0000 0000 0000 000000
2018-09-10 10:44:15,-0.01,0.61,0.00,19.26,22.92,25.99,14.04,47.68,1011.72,2044.27,3031.97,2760.00,3172.00,599.70,600.49,41.85,0000 0000 0000 0000 000000
2018-09-10 10:49:16,-0.00,0.61,0.00,19.27,22.92,26.04,14.04,47.76,1011.70,2044.15,3031.95,2760.00,3171.99,600.07,600.72,41.90,0000 0000 0000 0000 000000
2018-09-10 10:54:17,-0.00,0.61,0.00,19.26,22.92,26.04,14.12,47.83,1011.68,2044.12,3031.93,2760.00,3171.99,599.92,600.68,41.95,0000 0000 0000 0000 000000
2018-09-10 10:59:18,0.01,0.61,0.00,19.25,22.92,26.01,14.10,47.75,1011.71,2044.19,3031.92,2760.00,3171.96,600.03,600.89,42.00,0000 0000 0000 0000 000000
2018-09-10 11:04:19,0.01,0.61,0.00,19.24,22.92,25.99,14.08,47.72,1011.73,2044.13,3031.49,2760.00,3171.92,600.09,600.87,42.05,0000 0000 0000 0000 000000
2018-09-10 11:09:21,0.00,0.61,0.00,19.24,22.92,26.02,14.13,47.76,1011.73,2044.10,3031.35,2759.99,3171.83,600.16,601.17,42.10,0000 0000 0000 0000 000000
2018-09-10 11:14:22,0.00,0.61,0.00,19.24,22.91,26.00,14.07,47.81,1011.73,2044.06,3031.11,2759.99,3171.56,599.99,600.81,42.15,0000 0000 0000 0000 000000
2018-09-10 11:19:23,0.00,0.61,0.00,19.23,22.90,25.98,14.08,47.79,1011.73,2044.08,3031.17,2759.99,3171.61,599.93,600.76,42.20,0000 0000 0000 0000 000000
2018-09-10 11:24:24,0.01,0.61,0.00,19.22,22.89,25.96,14.14,47.87,1011.73,2044.13,3031.05,2759.99,3171.22,600.12,600.96,42.25,0000 0000 0000 0000 000000
2018-09-10 11:29:25,0.00,0.61,0.00,19.22,22.89,25.99,14.00,47.74,1011.73,2044.10,3031.03,2759.97,3171.02,599.81,600.80,42.31,0000 0000 0000 0000 000000
2018-09-10 11:34:26,-0.00,0.61,0.00,19.21,22.89,26.00,14.06,47.79,1011.73,2044.10,3031.01,2759.97,3171.00,599.81,600.66,42.36,0000 0000 0000 0000 000000
2018-09-10 11:39:28,-0.01,0.61,0.00,19.20,22.89,25.99,14.12,47.82,1011.73,2044.05,3031.00,2759.97,3171.00,600.17,601.01,42.41,0000 0000 0000 0000 000000
2018-09-10 11:44:29,0.00,0.61,0.00,19.19,22.88,25.97,14.15,47.77,1011.73,2044.10,3031.00,2759.96,3171.00,599.81,600.78,42.46,0000 0000 0000 0000 000000
2018-09-10 11:49:30,-0.00,0.61,0.00,19.17,22.87,25.97,14.06,47.74,1011.73,2044.13,3031.00,2759.96,3171.00,600.03,600.93,42.51,0000 0000 0000 0000 000000
2018-09-10 11:54:31,0.02,0.61,0.00,19.17,22.87,25.98,14.14,47.84,1011.73,2044.29,3031.00,2759.98,3171.00,599.98,600.92,42.56,0000 0000 0000 0000 000000
2018-09-10 11:59:32,-0.01,0.61,0.00,19.17,22.87,25.96,14.06,47.78,1011.73,2044.18,3030.99,2759.97,3170.99,600.01,601.06,42.61,0000 0000 0000 0000 000000
2018-09-10 12:04:33,0.00,0.61,0.00,19.15,22.85,25.95,14.14,47.92,1011.73,2044.14,3030.93,2759.93,3170.98,600.39,601.40,42.66,0000 0000 0000 0000 000000
2018-09-10 12:09:34,0.02,0.61,0.00,19.14,22.85,25.96,13.99,47.83,1011.73,2044.35,3030.96,2759.97,3170.98,599.66,600.66,42.71,0000 0000 0000 0000 000000
2018-09-10 12:14:36,0.02,0.61,0.00,19.14,22.84,25.94,14.11,47.88,1011.73,2044.56,3030.74,2759.94,3170.96,599.91,601.04,42.76,0000 0000 0000 0000 000000
2018-09-10 12:19:37,0.02,0.61,0.00,19.13,22.84,25.94,14.10,47.89,1011.73,2044.78,3030.63,2759.94,3170.96,600.03,601.00,42.81,0000 0000 0000 0000 000000
2018-09-10 12:24:38,0.01,0.62,0.00,19.12,22.83,25.95,14.03,47.92,1011.73,2044.91,3030.48,2759.96,3170.96,599.86,600.92,42.86,0000 0000 0000 0000 000000
2018-09-10 12:29:40,0.01,0.62,0.00,19.12,22.82,25.94,14.09,47.81,1011.74,2044.91,3030.23,2759.96,3170.86,600.07,601.19,42.91,0000 0000 0000 0000 000000
2018-09-10 12:34:41,0.00,0.62,0.00,19.09,22.82,25.94,14.07,47.79,1011.74,2044.91,3030.07,2759.96,3170.67,599.75,600.94,42.96,0000 0000 0000 0000 000000
2018-09-10 12:39:42,0.00,0.62,0.00,19.09,22.82,25.94,14.12,47.83,1011.74,2044.92,3030.05,2759.97,3170.52,600.21,601.50,43.01,0000 0000 0000 0000 000000
2018-09-10 12:44:43,0.00,0.62,0.00,19.07,22.80,25.90,14.12,47.77,1011.74,2044.94,3030.03,2759.97,3170.43,600.19,601.41,43.06,0000 0000 0000 0000 000000
2018-09-10 12:49:45,0.00,0.62,0.00,19.06,22.79,25.88,14.12,47.95,1011.73,2044.94,3030.02,2759.97,3170.21,600.10,601.22,43.11,0000 0000 0000 0000 000000
2018-09-10 12:54:46,0.00,0.62,0.00,19.05,22.79,25.89,14.12,47.89,1011.74,2044.94,3030.00,2759.96,3170.07,599.80,601.03,43.17,0000 0000 0000 0000 000000